GOES 17 (43226 NORAD) Tracking and Keplerian Element Data

This shows tracking and keplerian element data for the satellite.

Feedback or suggestion? Click here.




ElementValue
Catalog43226
NameGOES 17
Epoch Orbit421
Epoch Day109.80049295
Epoch Year2019
RAAN50.9326
Inclination0.0215
Eccentricity0.0003117
Argument of Perigee346.97
Mean Anonmoly320.6706
Mean Motion1.00272499
Decay Rate7.8E-07
L11 43226U 18022A 19109.80049295 .00000078 00000-0 00000+0 0 9991
L22 43226 0.0215 50.9326 0003117 346.9700 320.6706 1.00272499 4218

Live tracking and technical data element details for GOES 17 (NORAD 43226). GOES 17 can be tracked NOW for your location showing map with azimuth and elevation plus other details from your city location.

Track the satellite on the map from your city or location and see movement details for azimuth, elevation, latitude, longitude, range, height, and movement on the map or in text.







IsCatalogInMostPopularTable: catalog: 43226, numindb: 316
Update: records affected: 1



GetName: 43226 GOES 17

Hit Count: updated at: Sat, 20 Apr 2019 20:35:45 GMT